Hourly Data Report for September 26, 2017

All times are specified in Local Standard Time (LST). Add 1 hour to adjust for Daylight Saving Time where and when it is observed.

ENNADAI LAKE (AUT)
NUNAVUT

61°07'55.000" N
100°53'02.000" W
353.10 m
2301102
71923
WJC

Download Data

Hourly Data (September 2017)
Hourly Data Report for September 26, 2017
Temp Definition
°C
Dew Point Temp Definition
°C
Rel Hum Definition
%
Wind Dir Definition
10's deg

Wind Spd Definition
km/h
Visibility Definition
km
Stn Press Definition
kPa
Hmdx Definition


Wind Chill Definition


Weather Definition


TIME
00:00 6.4 4.0 85 17 30   97.09     LegendNANA
01:00 6.0 3.8 86 18 27   97.06     LegendNANA
02:00 6.2 4.1 86 17 26   97.05     LegendNANA
03:00 7.0 4.7 86 18 26   97.01     LegendNANA
04:00 6.8 4.9 88 18 28   96.98     LegendNANA
05:00 6.3 5.5 94 17 28   96.94     LegendNANA
06:00 6.4 5.4 93 17 25   96.93     LegendNANA
07:00 6.3 5.5 94 15 19   96.88     LegendNANA
08:00 6.3 5.6 95 16 23   96.86     LegendNANA
09:00 6.5 5.7 95 16 21   96.84     LegendNANA
10:00 7.1 6.0 93 16 21   96.78     LegendNANA
11:00 7.4 6.2 92 17 16   96.78     LegendNANA
12:00 7.6 6.5 92 16 15   96.73     LegendNANA
13:00 8.6 6.8 88 15 13   96.70     LegendNANA
14:00 9.0 6.9 87 16 16   96.65     LegendNANA
15:00 9.4 7.3 86 16 15   96.62     LegendNANA
16:00 9.0 7.2 89 18 16   96.64     LegendNANA
17:00 8.6 7.3 92 16 8   96.61     LegendNANA
18:00 8.2 7.6 96 16 10   96.59     LegendNANA
19:00 8.0 7.5 97 14 7   96.57     LegendNANA
20:00 7.8 7.5 98 12 5   96.55     LegendNANA
21:00 7.6 7.3 99 12 6   96.53     LegendNANA
22:00 7.4 7.3 99 12 7   96.50     LegendNANA
23:00 7.4 7.2 99   0   96.49     LegendNANA

Notes on Data Quality.

Legend

  • E = Estimated
  • M = Missing
  • NA = Not Available
  • ‡ = Partner data that is not subject to review by the National Climate Archives
Date modified: